User: anonymous   Login
Location: El Bakhil
(32.7726°N, 5.5387°W)
Time: 06:13:18
(UTC+00:00)
Language:

NANOSAT C BR1 - Orbit

View from above orbital plane
View from above orbital plane
View from above satellite
View from above satellite

Ground track
Ground track

The orbit data is extracted from the following two-line orbital elements,

1 40024U 14033Q   21209.78809273  .00000548  00000-0  61985-4 0  9999
2 40024  97.9516 145.3050 0013138  39.1614 321.0552 14.90490734386272
Epoch (UTC): 28 July 2021 18:54:51
Eccentricity: 0.0013138
inclination: 97.9516°
perigee height: 587 km
apogee height: 605 km
right ascension of ascending node: 145.3050°
argument of perigee: 39.1614°
revolutions per day: 14.90490734
mean anomaly at epoch: 321.0552°
orbit number at epoch: 38627

The dashed part of the orbit path shows where the satellite is in the earth's shadow,  

DLR